Location: ????????
(60.4333°N, 46.4710°E)
Time: 19:10:02
(UTC+00:00)

S3M - Pass Details

Date: 25 November 2020
Orbit: 949 x 1005 km, 83.0° (Epoch: 16 January)

Event Time Altitude Azimuth Distance (km) Brightness Sun altitude
Rises 13:05:02 0° 200° (SSW) 3,682 7.9 -7.0°
Reaches altitude 10° 13:07:32 10° 203° (SSW) 2,745 7.3 -7.3°
Maximum altitude 13:13:51 71° 287° (WNW) 1,056 4.4 -8.0°
Drops below altitude 10° 13:20:16 10° 12° (NNE) 2,791 6.0 -8.7°
Sets 13:22:50 0° 15° (NNE) 3,747 6.7 -9.0°
